User: anonymous   Login
Location: Asheville, NC
(35.6000°N, 82.5500°W)
Time: 17:08:22
(UTC-05:00)
Language:

BEESAT - Orbit

View from above orbital plane
View from above orbital plane
View from above satellite
View from above satellite

Ground track
Ground track

The orbit data is extracted from the following two-line orbital elements,

1 35933U 09051C   18021.35561579  .00000115  00000-0  36994-4 0  9993
2 35933  98.5264 170.6300 0005021 322.6529  37.4318 14.56221560442179
Epoch (UTC): 21 January 2018 08:32:05
Eccentricity: 0.0005021
inclination: 98.5264°
perigee height: 702 km
apogee height: 709 km
right ascension of ascending node: 170.6300°
argument of perigee: 322.6529°
revolutions per day: 14.56221560
mean anomaly at epoch: 37.4318°
orbit number at epoch: 44217

The dashed part of the orbit path shows where the satellite is in the earth's shadow,  

DLR